Погода в Подчерьем

Россия / Республика Коми     63°56′22″N   57°33′41″E
темп.,
°C
ветер,
м/с
пор.,
м/с
влажн.,
%
обл.,
%
осадки,
мм/ч
давл.,
гПа
погр.,
м
4 декабря, сб
сб400:00−16сз2496100 0.2 1007294
03:00−18ссз259784 0.4 1010169
06:00−21ссз229879 0.1 101461
09:00−26ссз2210069 0.1 101629
12:00−24ссв3698100 0.0 1015153
15:00−23св3895100 0.0 1014163
18:00−15в51279100 0.0 1012497
21:00−15всв61566100 0.0 1012702
5 декабря, вс
вс500:00−15всв61366100 0.0 1013566
03:00−16всв51376100 0.5 1013432
06:00−16всв3975100 0.2 1013307
09:00−19св2290100 0.2 101430
12:00−19св2388100 0.0 101548
15:00−23всв229184 0.0 101726
18:00−26св22935 0.0 101815
21:00−27св11945 0.0 101910
6 декабря, пн
пн600:00−28св119317 0.0 102010
03:00−27юв109292 0.0 102110
06:00−21ю1197100 0.1 102145
09:00−18ю2398100 0.2 102164
12:00−17ююз239899 0.1 102176
15:00−16юз2498100 0.4 102298
18:00−16юз2497100 0.3 1022109
21:00−15ююз3597100 0.6 1022159
7 декабря, вт
вт700:00−14ююз3796100 0.9 1023259
03:00−13юз4796100 1.9 1025322
06:00−12юз3796100 1.2 1026329
09:00−12ююз3696100 2.1 1028230
12:00−14ююз359682 0.3 1030146
15:00−15ю359787 0.4 1032114
18:00−16ю3796100 0.2 1034180
21:00−17ю369777 0.3 1035157
8 декабря, ср
ср800:00−19ю259898 0.1 1036109
03:00−20ю249988 0.1 1036105
06:00−24юв1110069 0.0 103612
09:00−26юв1110065 0.0 10359
12:00−25в1110031 0.0 10339
15:00−27всв1110039 0.0 10319
18:00−27св1110044 0.0 10299
21:00−28св1110056 0.0 102811